Location: Alafon
(8.4500°N, 4.2333°E)
Time: 00:55:35
(UTC+00:00)

deb Explorer IX - Pass Details

Date: 01 August 2021
Orbit: 545 x 1092 km, 38.8° (Epoch: 16 September)

Event Time Altitude Azimuth Distance (km) Brightness Sun altitude
Rises 17:27:09 0° 339° (NNW) 3,569 ? 7.8°
Reaches altitude 10° 17:31:29 10° 6° (N) 2,744 ? 6.8°
Maximum altitude 17:34:19 13° 32° (NNE) 2,603 ? 6.1°
Drops below altitude 10° 17:37:13 10° 56° (ENE) 2,860 ? 5.5°
Sets 17:41:56 0° 83° (E) 3,871 ? 4.3°
